Tracking 19177 objects as of 24-May-2018
HD Live streaming from Space Station
objects crossing your sky now

HELIOS 1B

Track HELIOS 1B now!
10-day predictions
HELIOS 1B is classified as:


NORAD ID: 25977
Int'l Code: 1999-064A
Perigee: 628.9 km
Apogee: 629.2 km
Inclination: 98.2 °
Period: 97.1 minutes
Semi major axis: 7000 km
RCS: 8.0113 m2 (large)
Launch date: December 3, 1999
Source: France (FR)
Launch site: FRENCH GUIANA (FRGUI)

Helios 1B was a French military photo-reconnoissance spacecraft launched by an Ariane rocket at 16:22 UT.
aabbcc
Your satellite tracking list
Your tracking list is empty




NASA's NSSDC Master Catalog

Two Line Element Set (TLE):
1 25977U 99064A   18143.91639296 +.00000051 +00000-0 +13276-4 0  9999
2 25977 098.1806 267.2979 0000245 151.1070 209.0156 14.82353527263185
Source of the keplerian elements: AFSPC